AKDT,Max TemperatureF,Mean TemperatureF,Min TemperatureF,Max Dew PointF,MeanDew PointF,Min DewpointF,Max Humidity, Mean Humidity, Min Humidity, Max Sea Level PressureIn, Mean Sea Level PressureIn, Min Sea Level PressureIn, Max VisibilityMiles, Mean VisibilityMiles, Min VisibilityMiles, Max Wind SpeedMPH, Mean Wind SpeedMPH, Max Gust SpeedMPH,PrecipitationIn, CloudCover, Events, WindDirDegrees
2012-9-1,55,50,44,54,49,45,100,97,93,29.81,29.67,29.55,10,6,2,28,5,32,0.00,7,,163
2012-9-2,53,52,51,54,51,43,100,94,71,29.56,29.36,29.27,10,6,2,30,22,38,0.00,8,,185
2012-9-3,55,52,48,46,43,39,87,72,62,29.86,29.71,29.46,10,10,10,25,14,33,0.00,6,,225
2012-9-4,55,52,50,54,49,45,100,89,72,29.77,29.41,29.29,10,7,2,44,31,55,0.00,7,,182
2012-9-5,53,50,48,48,44,43,94,78,67,30.18,29.86,29.43,10,9,3,29,21,47,0.00,7,,229
2012-9-6,51,48,44,46,44,41,93,83,71,30.23,30.19,30.12,10,10,2,21,8,24,0.00,5,,188
2012-9-7,50,47,44,46,44,41,93,86,76,30.11,30.01,29.89,10,10,10,20,8,22,0.00,7,,248
2012-9-8,53,48,44,45,41,36,93,78,67,30.17,30.08,29.95,10,10,10,24,14,28,0.00,5,,318
2012-9-9,51,46,42,45,42,39,100,85,62,30.18,30.09,29.97,10,10,10,13,8,,0.00,6,,239
2012-9-10,53,48,44,52,48,43,100,98,93,29.96,29.81,29.69,10,6,2,20,5,24,0.00,8,,181
2012-9-11,53,50,46,50,47,45,100,89,72,29.71,29.64,29.61,10,9,2,14,9,,0.00,7,,228
2012-9-12,55,50,46,46,44,39,93,80,63,30.05,29.87,29.71,10,10,10,20,10,23,0.00,5,,298
2012-9-13,48,45,42,48,42,37,100,84,66,30.07,29.97,29.73,10,9,2,28,10,32,0.00,5,,216
2012-9-14,51,50,48,52,48,45,100,92,76,29.71,29.66,29.62,10,9,2,25,14,30,0.00,7,,190
2012-9-15,53,50,46,54,50,43,100,96,82,29.38,29.13,28.97,10,5,1,38,9,47,0.00,8,,145
2012-9-16,50,48,46,45,40,37,93,76,62,29.75,29.31,28.87,10,9,3,45,29,60,0.00,7,,218
2012-9-17,51,48,46,50,46,37,100,92,71,29.77,29.60,29.46,10,7,1,24,13,29,0.00,8,,167
2012-9-18,51,50,48,50,49,46,100,95,87,29.57,29.51,29.46,10,9,3,17,12,22,0.00,8,,166
2012-9-19,50,47,44,48,44,39,100,90,76,29.65,29.49,29.36,10,9,1,16,7,22,0.00,6,,344
2012-9-20,50,47,42,43,42,39,93,85,76,29.69,29.64,29.61,10,10,10,18,13,24,0.00,6,,351
2012-9-21,48,44,41,46,41,36,93,82,66,29.70,29.50,29.17,10,10,10,30,9,34,0.00,6,,354
2012-9-22,48,45,42,46,40,34,93,82,70,29.59,29.30,29.14,10,10,9,37,27,50,0.00,7,,330
2012-9-23,46,42,39,37,34,30,87,68,53,29.95,29.85,29.60,10,10,10,25,16,32,0.00,5,,299
2012-9-24,46,42,39,45,43,36,100,94,81,29.88,29.53,29.19,10,9,4,13,4,21,0.00,7,,57
2012-9-25,48,45,42,45,43,39,100,88,71,29.18,29.06,28.95,10,10,7,16,9,,0.00,7,,198
2012-9-26,51,46,42,45,42,39,100,85,71,29.02,28.91,28.88,10,10,9,31,8,37,0.00,7,,349
2012-9-27,48,44,41,45,38,27,93,76,57,29.55,29.32,29.04,10,10,9,31,22,39,0.00,5,,313
2012-9-28,44,40,37,36,34,28,93,79,57,29.75,29.69,29.56,10,10,10,24,16,31,0.00,6,,292
2012-9-29,44,40,37,39,34,30,93,77,57,30.05,29.86,29.68,10,10,9,17,12,25,0.00,4,,298
2012-9-30,48,40,33,45,37,28,100,83,65,30.10,30.07,30.05,10,10,3,26,6,32,0.00,7,,178